Location: Dallas
(32.7833°N, 96.8000°W)
Time: 18:36:22
(UTC-05:00)

ISS - Pass Details

Date: 25 February 2018
Orbit: 411 x 421 km, 51.6° (Epoch: 21 October)

Event Time Altitude Azimuth Distance (km) Brightness Sun altitude
Exits shadow 06:20:44 - 306° (NW) 1,595 -1.3 -8.9°
Reaches altitude 10° 06:21:20 10° 316° (NW) 1,512 -1.4 -8.8°
Maximum altitude 06:22:14 11° 331° (NNW) 1,462 -1.3 -8.6°
Drops below altitude 10° 06:23:07 10° 347° (NNW) 1,506 -1.1 -8.4°
Sets 06:26:42 0° 27° (NNE) 2,360 0.4 -7.7°
